Location: Wells
(51.2093°N, 2.6446°W)
Time: 00:39:52
(UTC+01:00)

STARS - Pass Details

Date: 22 March 2026
Orbit: 575 x 588 km, 98.1° (Epoch: 13 April)

Event Time Altitude Azimuth Distance (km) Brightness Sun altitude
Rises 01:18:08 0° 26° (NNE) 2,800 ? -36.6°
Reaches altitude 10° 01:20:48 10° 44° (NE) 1,896 ? -36.5°
Enters shadow 01:21:07 11° 48° (NE) 1,806 ? -36.5°
